Regional Weather Roundup
Issued by NWS

Home | Current Version | Previous Version | Text Only | Print | Product List | Glossary Off
Versions: 1 2 3 4 5 6 7 8 9 10 11 12 13 14 15 16 17 18 19 20 21 22 23 24 25 26 27 28 29 30 31 32 33 34 35 36 37 38 39 40 41 42 43 44 45 46 47 48 49 50

000
ASUS43 KLSX 310307
RWRMO

WEATHER SUMMARY FOR MISSOURI
NATIONAL WEATHER SERVICE SPRINGFIELD MO
1000 PM CDT SAT AUG 30 2014

NOTE: "FAIR" INDICATES FEW OR NO CLOUDS BELOW 12,000 FEET WITH NO
       SIGNIFICANT WEATHER AND/OR OBSTRUCTIONS TO VISIBILITY.
       CURRENT SKY AND/OR WEATHER CONDITIONS ARE NOT AVAILABLE FOR
       CHILLICOTHE AND FARMINGTON.

MOZ001>031-035>038-043-044-053-054-310400-
...NORTHERN AND WESTERN MISSOURI...

CITY           SKY/WX    TMP DP  RH WIND       PRES   REMARKS
KANSAS CTY INT CLEAR     75  68  78 SE8       29.91R
KANSAS C DTWN  CLEAR     80  67  64 E6        29.89S
LEE`S SUMMIT   CLEAR     77  67  71 SE5       29.92R
ST JOSEPH      CLEAR     69  67  93 CALM      29.89S
CHILLICOTHE      N/A     71  69  93 CALM      29.92R
KIRKSVILLE     CLEAR     69  67  93 CALM      29.93R

$$
MOZ066>068-077>081-088>096-101>105-310400-
...SOUTHWEST MISSOURI...

CITY           SKY/WX    TMP DP  RH WIND       PRES   REMARKS
SPRINGFIELD    PTCLDY    70  66  87 S9        29.95R
JOPLIN         MOCLDY    79  66  64 S8        29.94R

$$
MOZ032>034-039>042-045>050-055>058-069>072-310400-
...CENTRAL MISSOURI...

CITY           SKY/WX    TMP DP  RH WIND       PRES   REMARKS
COLUMBIA       MOCLDY    73  69  87 SE8       29.93R
JEFFERSON CITY MOCLDY    73  68  84 SE5       29.92R
ROLLA          CLOUDY    70  67  90 S8        29.94R
SEDALIA        CLEAR     77  69  76 SW5       29.93R
WHITEMAN AFB   CLEAR     72  68  88 CALM      29.91S
OSAGE BEACH    MOCLDY    73  66  78 S3        29.93S

$$
MOZ051-052-059>065-310400-
...EAST CENTRAL MISSOURI...

CITY           SKY/WX    TMP DP  RH WIND       PRES   REMARKS
ST LOUIS INTL  MOCLDY    78  70  76 S8        29.94R
SPIRIT OF STL  PTCLDY    76  71  85 S5        29.91S
ST CHARLES     MOCLDY    77  71  82 S6        29.92R

$$
MOZ072>076-082>087-097>100-106>115-310400-
...SOUTH CENTRAL AND SOUTHEAST MISSOURI...

CITY           SKY/WX    TMP DP  RH WIND       PRES   REMARKS
CAPE GIRARDEAU CLOUDY    73  71  93 S8        29.99R
FARMINGTON     MOCLDY    73  70  88 S10       30.00F
POPLAR BLUFF   CLOUDY    75  70  84 S6        29.96R
WEST PLAINS    PTCLDY    74  69  85 S5        30.00R

$$



USA.gov is the U.S. government's official web portal to all federal, state and local government web resources and services.